Dewpoint
32 34 33 33 35 37 35 35 34 36 35 37 37 37 36 35 35 36 33 30 29 30 30 28 27 27 25 24 24 22 20 19 17 17 17 18 20 22 22 24 24 28 30
30 30 30 33 33 34 34 34 35 35 36 36 36 36 35 35 37 33 29 28 28 28 26 26 26 23 24 24 22 21 20 19 18 15 16 17 21 22 23 25 23 24 24
26 26 28 30 33 34 34 35 36 36 37 37 35 35 37 37 30 29 28 27 25 26 26 26 25 25 23 21 21 19 19 18 19 17 17 18 18 19 25 24 24 26 23
24 24 27 31 34 35 36 37 37 36 37 37 37 38 35 30 28 26 25 26 27 27 27 26 24 22 20 19 19 20 18 21 20 19 18 17 18 19 21 23 23 23 23
26 26 28 31 35 36 37 36 36 37 37 37 35 33 30 28 24 28 28 27 26 24 22 19 18 20 22 21 19 19 19 19 19 20 17 15 15 16 16 19 22 24 28
26 26 28 32 34 35 35 35 35 35 35 36 32 28 27 25 30 29 28 23 20 17 16 16 16 18 18 21 21 22 22 23 24 20 18 21 20 19 19 18 24 22 20
25 26 27 32 33 33 33 33 33 33 35 34 29 26 26 25 24 25 24 22 19 17 16 15 15 14 18 17 19 22 24 23 23 24 23 19 17 17 19 23 23 24 22
25 26 30 32 32 32 33 32 31 31 33 32 27 26 24 19 22 22 22 19 18 17 16 16 16 16 17 19 24 21 19 17 19 21 24 23 21 21 21 24 25 23 23
25 27 29 31 31 31 30 30 29 30 30 28 26 24 20 19 20 21 21 21 20 19 18 17 17 16 20 24 21 21 17 16 19 21 24 25 26 26 26 24 24 23 23
27 28 29 30 30 30 29 28 27 27 27 26 23 22 21 21 19 20 21 23 23 21 19 16 17 18 21 20 20 21 19 18 17 19 20 22 24 24 26 24 21 24 22
29 30 30 28 29 29 28 27 26 26 27 27 26 24 21 21 20 20 21 24 22 21 17 15 17 19 18 18 19 21 21 20 21 20 19 19 19 21 24 26 23 22 21
28 30 28 29 28 26 28 27 26 26 26 25 26 26 24 25 21 20 21 22 21 21 19 17 19 17 17 18 18 19 18 20 21 21 21 20 21 22 22 24 28 28 25
30 29 28 28 28 27 27 27 24 24 25 25 23 25 23 24 23 20 21 23 20 21 21 17 16 16 16 15 16 17 17 18 19 19 19 19 22 24 27 29 29 28 30
29 30 30 29 27 28 29 26 24 26 25 24 25 24 24 23 24 22 23 23 20 19 18 16 16 15 14 16 15 15 15 15 17 18 18 20 22 24 26 28 28 29 29
29 29 30 30 30 29 29 25 25 26 26 27 26 25 27 26 24 23 24 23 22 19 17 17 15 14 12 13 14 13 12 11 14 17 18 18 19 21 23 25 27 28 28
29 29 31 31 31 30 28 26 27 27 26 27 27 27 29 25 22 23 23 19 17 15 15 15 14 15 14 11 13 13 12 9 11 15 17 17 17 19 20 22 23 24 25
28 30 31 31 31 30 30 29 28 28 27 28 28 28 28 27 24 25 23 19 17 15 16 16 17 15 14 11 10 11 10 10 10 13 15 16 17 18 20 20 21 21 21
29 31 32 32 31 31 31 30 30 29 28 28 26 25 26 26 27 26 23 20 19 17 16 16 17 16 14 11 10 10 10 11 10 9 14 15 16 17 18 17 19 19 19
29 30 32 33 32 32 32 31 30 28 27 26 26 24 25 25 26 27 24 23 22 20 18 16 18 16 15 14 15 14 14 13 11 11 11 13 14 14 15 16 17 16 16
30 31 32 31 32 31 30 29 28 28 27 27 27 26 25 21 26 26 26 25 23 22 22 19 18 17 18 17 17 16 14 14 13 11 11 13 14 14 13 15 16 16 15
29 29 31 32 30 29 30 29 27 28 27 27 27 30 24 24 25 26 26 25 23 23 23 22 21 20 19 18 16 16 14 15 13 10 10 11 13 13 12 14 14 15 14
29 30 30 31 31 30 29 30 28 27 26 26 27 28 21 22 25 26 26 26 26 24 24 24 22 21 20 18 18 18 15 14 14 12 10 9 12 13 12 12 12 13 13
31 31 30 29 31 30 30 29 28 28 27 27 26 26 27 26 26 25 26 26 26 25 24 23 23 21 21 19 19 17 16 14 15 13 10 10 12 13 13 12 11 10 10
32 32 30 29 30 29 29 28 28 25 26 27 27 27 26 27 27 27 27 27 26 26 25 21 21 20 20 20 19 17 15 15 15 13 7 9 11 11 12 10 11 10 10
30 30 32 31 31 30 29 28 28 29 28 28 28 28 28 29 28 28 28 27 24 24 23 20 20 19 18 17 18 16 15 12 13 9 10 9 10 10 10 9 11 10 10
30 31 32 31 31 31 30 29 29 30 30 30 30 29 30 30 29 29 28 26 24 23 23 23 21 18 18 18 17 15 10 10 11 6 9 10 10 11 11 10 9 11 9
Lifted_Index
11 11 11 12 12 12 13 13 13 13 13 13 12 12 11 11 10 9 8 7 6 6 6 6 6 6 6 7 8 8 9 9 9 9 9 9 9 8 8 8 7 6 6
11 11 12 12 12 12 13 13 13 13 13 13 12 11 11 10 9 8 7 6 6 6 6 6 6 7 7 8 9 9 9 10 9 9 9 9 8 8 8 7 6 6 5
11 11 12 12 12 12 12 13 13 13 12 12 12 11 10 8 7 7 6 6 5 6 6 7 7 8 8 9 10 10 10 10 10 9 9 9 8 8 7 6 6 5 5
11 12 12 12 12 12 12 12 12 12 12 11 11 10 9 7 7 6 6 5 6 6 7 7 8 9 10 10 11 10 10 10 10 10 9 9 8 7 7 6 6 5 5
11 12 12 12 12 12 12 12 12 12 12 11 10 9 8 7 6 6 6 6 6 7 8 8 9 10 11 11 11 11 11 11 10 9 9 8 7 7 7 6 6 5 5
11 12 12 12 12 12 12 12 12 12 11 11 9 8 7 6 6 6 6 6 7 8 8 9 10 11 11 12 11 11 11 11 10 9 9 8 7 6 6 6 6 5 5
11 12 12 12 12 12 12 12 12 12 11 10 8 7 7 6 6 6 6 7 8 8 9 9 10 11 12 12 12 11 11 11 10 10 9 8 7 7 6 6 5 5 5
12 13 13 12 12 12 12 12 12 11 10 9 8 7 7 6 6 7 7 8 8 9 9 10 11 12 12 12 12 11 11 11 11 10 9 8 8 7 6 6 5 5 5
13 13 13 13 13 13 13 12 12 11 10 9 8 7 7 6 7 7 8 8 8 9 10 11 12 12 13 12 12 12 12 11 11 11 10 9 8 7 7 6 6 6 6
13 13 13 13 13 13 12 12 11 10 9 8 7 7 6 7 7 8 8 8 8 9 10 11 12 12 13 13 13 12 12 12 12 11 11 9 8 7 7 6 6 6 6
14 14 14 14 14 13 12 11 10 9 9 8 7 7 7 7 7 8 8 9 9 9 10 11 12 12 13 13 13 13 13 12 12 12 11 10 9 8 7 7 7 7 7
14 14 14 14 13 13 12 10 9 9 8 8 7 7 7 7 7 8 9 9 10 10 11 12 13 13 13 13 13 13 13 13 12 12 11 11 10 9 8 7 7 7 7
14 14 14 14 13 12 11 10 9 8 8 7 7 7 7 7 8 8 9 9 10 10 11 12 13 13 13 13 13 13 13 13 12 12 11 11 10 9 8 8 7 7 7
13 13 14 13 13 12 10 9 8 7 7 7 7 7 7 7 8 8 8 9 10 10 11 11 12 12 12 12 13 13 13 13 12 12 11 11 10 10 9 8 8 7 7
13 13 13 13 12 11 10 9 8 7 7 7 7 7 7 7 8 8 8 9 9 10 10 10 11 11 11 11 12 13 13 13 13 12 12 11 11 10 9 9 8 8 8
12 12 12 12 11 10 9 8 7 7 7 7 7 8 8 8 8 8 9 9 9 10 9 9 9 9 10 10 11 12 12 13 13 13 12 12 11 11 10 10 9 9 8
12 12 12 11 10 10 9 8 7 7 7 7 7 8 8 8 8 9 9 9 9 9 9 9 9 9 9 10 10 11 12 13 13 13 13 12 12 11 11 10 10 9 9
11 11 11 10 10 9 8 7 7 6 7 7 7 8 8 8 8 8 9 8 8 8 8 8 8 9 9 9 10 11 11 12 13 13 13 13 13 13 12 11 11 10 10
10 10 10 9 9 8 7 7 7 7 7 7 7 7 8 8 8 8 8 8 8 8 8 8 8 8 9 9 10 10 11 11 12 12 13 13 14 14 13 13 12 12 11
9 9 9 9 8 8 7 6 6 6 6 6 7 7 7 7 7 7 7 7 7 8 8 8 8 8 8 9 9 10 10 11 11 12 12 13 13 14 14 14 13 13 13
9 9 9 9 8 7 6 6 6 6 6 6 6 7 7 7 7 7 7 7 7 7 7 7 7 7 8 8 8 9 9 10 10 11 12 12 13 13 14 14 14 14 14
9 9 8 8 8 6 6 5 5 5 6 6 6 6 7 7 7 7 7 7 7 7 7 7 7 7 7 8 8 8 9 9 10 10 11 11 12 12 13 13 14 14 14
8 8 8 8 7 6 5 5 5 5 5 5 5 5 6 6 6 7 7 6 7 7 7 7 7 7 7 8 8 8 9 9 9 10 10 11 11 11 12 12 13 13 13
8 8 8 8 7 6 5 5 4 4 4 5 5 5 5 5 5 6 6 6 6 6 6 7 7 7 7 8 8 9 9 9 10 10 10 10 10 11 11 11 12 12 13
8 8 8 8 7 6 5 5 4 4 4 4 4 4 5 5 5 5 5 5 5 5 6 6 7 7 7 8 8 9 9 10 10 10 10 10 10 10 10 10 11 12 12
8 8 8 8 7 6 5 5 4 4 4 4 4 4 5 5 4 4 4 4 4 5 5 6 6 7 7 7 8 9 9 10 10 10 10 10 9 9 10 10 10 11 11